Location: Normandy Village
(37.8755°N, 122.2655°W)
Time: 10:53:27
(UTC+00:00)

Helios 1A Rocket - Pass Details

Date: 22 September 2019
Orbit: 565 x 587 km, 98.3° (Epoch: 14 October)

Event Time Altitude Azimuth Distance (km) Brightness Sun altitude
Rises 13:11:04 0° 16° (NNE) 2,785 6.8 -9.8°
Reaches altitude 10° 13:13:14 10° 19° (NNE) 1,887 5.9 -9.4°
Maximum altitude 13:17:17 64° 102° (ESE) 640 3.4 -8.6°
Drops below altitude 10° 13:21:21 10° 184° (S) 1,886 5.4 -7.8°
Sets 13:23:30 0° 187° (S) 2,784 6.3 -7.4°
